TimeMDT,TemperatureF,Dew PointF,Humidity,Sea Level PressureIn,VisibilityMPH,Wind Direction,Wind SpeedMPH,Gust SpeedMPH,PrecipitationIn,Events,Conditions,WindDirDegrees,DateUTC
12:15 AM,51.1,21.2,31,30.10,10.0,North,9.2,-,N/A,,Clear,10,2013-03-29 06:15:00
12:35 AM,50.4,21.4,32,30.11,10.0,North,10.4,-,N/A,,Clear,10,2013-03-29 06:35:00
12:55 AM,50.0,21.9,33,30.11,10.0,NNE,8.1,-,N/A,,Clear,30,2013-03-29 06:55:00
1:15 AM,49.3,23.7,37,30.11,10.0,NNE,8.1,-,N/A,,Clear,20,2013-03-29 07:15:00
1:35 AM,49.1,20.7,33,30.12,10.0,NNE,6.9,-,N/A,,Clear,30,2013-03-29 07:35:00
1:55 AM,50.2,21.2,32,30.12,10.0,NE,5.8,-,N/A,,Scattered Clouds,50,2013-03-29 07:55:00
2:15 AM,49.1,19.0,30,30.12,10.0,East,5.8,-,N/A,,Overcast,80,2013-03-29 08:15:00
2:35 AM,49.1,19.9,32,30.12,10.0,East,5.8,-,N/A,,Overcast,90,2013-03-29 08:35:00
2:55 AM,49.5,21.2,33,30.13,10.0,NNE,3.5,-,N/A,,Overcast,30,2013-03-29 08:55:00
3:15 AM,48.2,20.8,34,30.14,10.0,SSE,6.9,-,N/A,,Overcast,160,2013-03-29 09:15:00
3:35 AM,50.5,21.0,31,30.13,10.0,NNE,6.9,20.7,N/A,,Overcast,30,2013-03-29 09:35:00
3:55 AM,58.3,24.8,28,30.14,10.0,NW,5.8,27.6,N/A,,Overcast,310,2013-03-29 09:55:00
4:15 AM,58.3,26.8,30,30.15,10.0,West,13.8,26.5,N/A,,Overcast,280,2013-03-29 10:15:00
4:35 AM,57.0,27.7,33,30.15,10.0,NNW,6.9,-,N/A,,Overcast,330,2013-03-29 10:35:00
4:55 AM,55.9,29.1,36,30.13,10.0,NNE,9.2,-,N/A,,Overcast,30,2013-03-29 10:55:00
5:15 AM,54.9,31.6,41,30.14,10.0,NNE,5.8,-,N/A,,Overcast,30,2013-03-29 11:15:00
5:35 AM,49.5,24.6,38,30.16,10.0,South,5.8,-,N/A,,Scattered Clouds,180,2013-03-29 11:35:00
5:55 AM,47.7,22.8,38,30.16,10.0,Calm,Calm,-,N/A,,Scattered Clouds,0,2013-03-29 11:55:00
6:15 AM,46.0,23.7,42,30.17,10.0,NNW,4.6,-,N/A,,Clear,340,2013-03-29 12:15:00
6:35 AM,45.3,24.8,45,30.17,10.0,NNE,5.8,-,N/A,,Clear,30,2013-03-29 12:35:00
6:55 AM,44.2,24.6,46,30.17,10.0,NNE,4.6,-,N/A,,Clear,30,2013-03-29 12:55:00
7:15 AM,43.2,25.3,49,30.18,10.0,NE,4.6,-,N/A,,Clear,50,2013-03-29 13:15:00
7:35 AM,45.7,26.2,47,30.19,10.0,North,8.1,-,N/A,,Scattered Clouds,10,2013-03-29 13:35:00
7:55 AM,49.1,25.9,40,30.19,10.0,NE,5.8,-,N/A,,Scattered Clouds,50,2013-03-29 13:55:00
8:15 AM,50.4,23.2,35,30.20,10.0,NE,5.8,-,N/A,,Clear,40,2013-03-29 14:15:00
8:35 AM,52.3,23.4,32,30.20,10.0,NNE,5.8,-,N/A,,Clear,30,2013-03-29 14:35:00
8:55 AM,54.7,23.2,29,30.20,10.0,NNE,5.8,-,N/A,,Clear,20,2013-03-29 14:55:00
9:15 AM,55.9,26.2,32,30.20,10.0,NE,6.9,-,N/A,,Clear,40,2013-03-29 15:15:00
9:35 AM,56.8,27.9,33,30.20,10.0,NE,6.9,-,N/A,,Clear,40,2013-03-29 15:35:00
9:55 AM,58.5,28.2,32,30.20,10.0,NE,6.9,-,N/A,,Clear,50,2013-03-29 15:55:00
10:15 AM,59.9,26.8,28,30.19,10.0,NE,4.6,-,N/A,,Clear,50,2013-03-29 16:15:00
10:55 AM,61.9,25.0,25,30.19,10.0,North,3.5,-,N/A,,Clear,360,2013-03-29 16:55:00
11:15 AM,63.7,25.2,23,30.19,10.0,Calm,Calm,-,N/A,,Clear,0,2013-03-29 17:15:00
11:35 AM,64.0,24.1,22,30.18,10.0,Calm,Calm,-,N/A,,Clear,0,2013-03-29 17:35:00
11:55 AM,65.5,24.6,21,30.18,10.0,North,4.6,-,N/A,,Clear,10,2013-03-29 17:55:00
12:15 PM,66.7,24.1,20,30.17,10.0,Calm,Calm,-,N/A,,Clear,0,2013-03-29 18:15:00
12:35 PM,67.5,22.8,18,30.16,10.0,Calm,Calm,-,N/A,,Clear,0,2013-03-29 18:35:00
12:55 PM,68.4,22.3,17,30.15,10.0,Calm,Calm,-,N/A,,Clear,0,2013-03-29 18:55:00
1:15 PM,69.4,22.6,17,30.14,10.0,SSW,8.1,-,N/A,,Clear,210,2013-03-29 19:15:00
1:35 PM,70.3,21.9,16,30.13,10.0,South,8.1,19.6,N/A,,Scattered Clouds,190,2013-03-29 19:35:00
1:55 PM,71.2,21.9,16,30.13,10.0,WNW,6.9,-,N/A,,Scattered Clouds,300,2013-03-29 19:55:00
2:15 PM,70.9,21.2,15,30.12,10.0,West,13.8,-,N/A,,Scattered Clouds,280,2013-03-29 20:15:00
2:35 PM,71.8,20.8,15,30.11,10.0,NNW,11.5,19.6,N/A,,Clear,330,2013-03-29 20:35:00
2:55 PM,72.1,19.8,14,30.11,10.0,WNW,12.7,-,N/A,,Clear,290,2013-03-29 20:55:00
3:15 PM,72.5,19.8,14,30.10,10.0,NW,9.2,18.4,N/A,,Scattered Clouds,310,2013-03-29 21:15:00
3:35 PM,72.5,20.1,14,30.09,10.0,WSW,10.4,17.3,N/A,,Clear,250,2013-03-29 21:35:00
3:55 PM,70.7,19.9,15,30.09,10.0,West,9.2,-,N/A,,Clear,280,2013-03-29 21:55:00
4:15 PM,72.3,19.0,13,30.09,10.0,WSW,11.5,17.3,N/A,,Clear,250,2013-03-29 22:15:00
4:35 PM,71.1,18.3,14,30.08,10.0,SW,10.4,-,N/A,,Clear,220,2013-03-29 22:35:00
4:55 PM,70.9,17.2,13,30.08,10.0,SW,9.2,-,N/A,,Clear,220,2013-03-29 22:55:00
5:15 PM,71.1,17.8,13,30.08,10.0,WNW,8.1,-,N/A,,Scattered Clouds,300,2013-03-29 23:15:00
5:35 PM,70.5,17.8,13,30.08,10.0,WNW,12.7,17.3,N/A,,Scattered Clouds,300,2013-03-29 23:35:00
5:55 PM,70.5,18.1,14,30.08,10.0,Calm,Calm,-,N/A,,Scattered Clouds,0,2013-03-29 23:55:00
6:15 PM,70.3,18.9,14,30.08,10.0,West,3.5,-,N/A,,Scattered Clouds,270,2013-03-30 00:15:00
6:35 PM,68.9,22.3,17,30.09,10.0,WNW,4.6,-,N/A,,Clear,300,2013-03-30 00:35:00
6:55 PM,68.5,21.2,17,30.10,10.0,Calm,Calm,-,N/A,,Clear,0,2013-03-30 00:55:00
7:15 PM,65.5,24.3,21,30.10,10.0,North,3.5,-,N/A,,Clear,360,2013-03-30 01:15:00
7:35 PM,65.8,21.2,18,30.10,10.0,West,4.6,-,N/A,,Clear,270,2013-03-30 01:35:00
7:55 PM,62.2,24.1,23,30.11,10.0,North,4.6,-,N/A,,Clear,360,2013-03-30 01:55:00
8:15 PM,61.2,24.6,25,30.12,10.0,NNE,4.6,-,N/A,,Clear,30,2013-03-30 02:15:00
8:35 PM,62.2,24.4,24,30.13,10.0,SSE,3.5,-,N/A,,Clear,160,2013-03-30 02:35:00
8:55 PM,61.3,26.6,27,30.14,10.0,Calm,Calm,-,N/A,,Scattered Clouds,0,2013-03-30 02:55:00
9:15 PM,59.2,27.9,30,30.14,10.0,SW,6.9,-,N/A,,Scattered Clouds,230,2013-03-30 03:15:00
9:35 PM,57.4,27.9,32,30.16,10.0,Calm,Calm,-,N/A,,Clear,0,2013-03-30 03:35:00
9:55 PM,54.0,26.4,35,30.16,10.0,North,8.1,-,N/A,,Clear,360,2013-03-30 03:55:00
10:15 PM,54.0,28.0,37,30.17,10.0,NNE,9.2,-,N/A,,Clear,20,2013-03-30 04:15:00
10:35 PM,55.9,27.1,33,30.17,10.0,NNE,5.8,-,N/A,,Clear,30,2013-03-30 04:35:00
10:55 PM,53.4,25.5,34,30.17,10.0,Calm,Calm,-,N/A,,Clear,0,2013-03-30 04:55:00
11:15 PM,54.9,24.3,31,30.19,10.0,Calm,Calm,-,N/A,,Clear,0,2013-03-30 05:15:00
11:35 PM,53.4,25.7,34,30.19,10.0,Calm,Calm,-,N/A,,Clear,0,2013-03-30 05:35:00
11:55 PM,51.4,25.5,37,30.19,10.0,Calm,Calm,-,N/A,,Clear,0,2013-03-30 05:55:00